TimeCDT,TemperatureF,Dew PointF,Humidity,Sea Level PressureIn,VisibilityMPH,Wind Direction,Wind SpeedMPH,Gust SpeedMPH,PrecipitationIn,Events,Conditions,WindDirDegrees,DateUTC
12:53 AM,75.9,68.0,76,29.96,10.0,East,3.5,-,N/A,,Clear,100,2013-06-16 05:53:00
1:53 AM,77.0,68.0,74,29.96,10.0,Calm,Calm,-,N/A,,Clear,0,2013-06-16 06:53:00
2:53 AM,77.0,66.9,71,29.92,10.0,Variable,3.5,-,N/A,,Clear,0,2013-06-16 07:53:00
3:53 AM,73.9,68.0,82,29.94,10.0,Calm,Calm,-,N/A,,Clear,0,2013-06-16 08:53:00
4:53 AM,73.9,68.0,82,29.97,10.0,Calm,Calm,-,N/A,,Scattered Clouds,0,2013-06-16 09:53:00
5:53 AM,73.0,69.1,87,29.99,10.0,Calm,Calm,-,0.00,Rain,Light Rain,0,2013-06-16 10:53:00
6:53 AM,73.9,70.0,87,30.02,10.0,West,4.6,-,0.00,,Overcast,280,2013-06-16 11:53:00
7:15 AM,73.4,69.8,88,30.05,1.8,Calm,Calm,-,0.00,Rain,Heavy Rain,0,2013-06-16 12:15:00
7:32 AM,73.4,71.6,94,30.04,2.5,ESE,4.6,-,0.01,Rain,Rain,120,2013-06-16 12:32:00
7:42 AM,73.4,71.6,94,30.03,4.0,Calm,Calm,-,0.02,Rain,Light Rain,0,2013-06-16 12:42:00
7:53 AM,73.0,71.1,93,30.01,4.0,ENE,3.5,-,0.02,,Partly Cloudy,60,2013-06-16 12:53:00
8:53 AM,77.0,72.0,84,30.00,8.0,Calm,Calm,-,0.02,,Partly Cloudy,0,2013-06-16 13:53:00
9:53 AM,77.0,73.0,88,30.03,4.0,Calm,Calm,-,0.01,,Mostly Cloudy,0,2013-06-16 14:53:00
10:08 AM,75.2,73.4,94,30.05,4.0,SW,3.5,-,N/A,,Mostly Cloudy,230,2013-06-16 15:08:00
10:53 AM,77.0,73.0,88,30.02,7.0,SSW,4.6,-,0.00,,Mostly Cloudy,200,2013-06-16 15:53:00
11:53 AM,78.1,71.1,79,30.01,10.0,Variable,3.5,-,0.01,,Scattered Clouds,0,2013-06-16 16:53:00
12:53 PM,82.9,72.0,69,29.97,10.0,Calm,Calm,-,N/A,,Clear,0,2013-06-16 17:53:00
1:53 PM,87.1,72.0,61,29.97,10.0,Variable,4.6,-,N/A,,Clear,0,2013-06-16 18:53:00
2:53 PM,88.0,72.0,59,29.95,10.0,Calm,Calm,-,N/A,,Partly Cloudy,0,2013-06-16 19:53:00
3:53 PM,90.0,72.0,55,29.92,10.0,West,3.5,-,N/A,,Clear,280,2013-06-16 20:53:00
4:53 PM,87.1,73.9,65,29.92,10.0,Calm,Calm,-,N/A,,Clear,0,2013-06-16 21:53:00
5:53 PM,82.9,77.0,82,29.91,10.0,Calm,Calm,-,N/A,,Clear,0,2013-06-16 22:53:00
6:53 PM,82.0,77.0,85,29.89,10.0,Calm,Calm,-,N/A,,Clear,0,2013-06-16 23:53:00
7:53 PM,82.0,75.0,79,29.94,10.0,WNW,9.2,-,0.00,,Mostly Cloudy,290,2013-06-17 00:53:00
8:53 PM,75.9,71.1,85,29.94,6.0,Calm,Calm,-,0.00,Rain,Rain,0,2013-06-17 01:53:00
9:53 PM,75.0,72.0,90,29.96,9.0,Calm,Calm,-,N/A,,Partly Cloudy,0,2013-06-17 02:53:00
10:53 PM,73.0,71.1,93,29.91,9.0,East,3.5,-,N/A,,Clear,100,2013-06-17 03:53:00
11:53 PM,75.0,71.1,87,29.94,10.0,NNW,4.6,-,N/A,,Clear,340,2013-06-17 04:53:00